EW0641 Weather Reports


Display with metric or nautical units.
time (UTC)temp
F
wind
direction
speed
MPH
gust
MPH
rain 1hr
in
rain 24hr
in
rain mn
in
humidity
%
barometer
mb
20260504173017 71 263 0.0 0.0 0.00 0.00 0.00 54 1002.4
20260504171512 71 248 0.0 0.0 0.00 0.00 0.00 56 1002.6
20260504160108 68 248 0.0 0.0 0.00 0.00 0.00 57 1003.7
20260504081501 52 229 0.0 0.0 0.00 0.00 0.00 70 1005.6
20260504080104 52 229 0.0 0.0 0.00 0.00 0.00 70 1005.8
20260504044535 53 223 0.0 0.0 0.00 0.00 0.00 71 1008.3
20260504043032 53 230 0.0 0.0 0.00 0.00 0.00 71 1008.5
20260504041530 53 260 0.0 0.0 0.00 0.00 0.00 72 1008.6
20260504040028 53 193 0.0 0.0 0.00 0.00 0.00 72 1008.8
20260504034528 53 230 0.0 0.0 0.00 0.00 0.00 74 1008.9
20260504033027 52 234 0.0 0.0 0.00 0.00 0.00 75 1009.1
20260504031526 52 247 0.0 0.0 0.00 0.00 0.00 74 1009.2
20260504030025 53 237 0.0 0.0 0.00 0.00 0.00 74 1009.4
20260504024524 53 214 0.0 0.0 0.00 0.00 0.00 71 1009.5
20260504023023 54 242 0.0 0.0 0.00 0.00 0.00 66 1009.5
20260504021522 54 205 0.0 0.0 0.00 0.00 0.00 65 1009.5
20260504020025 55 215 0.0 0.0 0.00 0.00 0.00 64 1009.6
20260504014522 55 219 0.0 0.0 0.00 0.00 0.00 63 1009.5
20260504013031 56 227 0.0 0.0 0.00 0.00 0.00 62 1009.5
20260504011520 56 228 0.0 0.0 0.00 0.00 0.00 61 1009.4
20260504010020 57 241 0.0 0.0 0.00 0.00 0.00 59 1009.5
20260504004520 57 266 0.0 0.0 0.00 0.00 0.00 59 1009.5
20260504003023 58 199 0.0 0.0 0.00 0.00 0.00 57 1009.3
20260504001521 60 238 0.0 0.0 0.00 0.00 0.00 56 1009.2
20260504000045 60 256 0.0 0.0 0.00 0.00 0.00 50 1008.8
20260503234518 61 271 0.0 0.0 0.00 0.00 0.00 47 1008.8
20260503233016 61 245 0.0 0.0 0.00 0.00 0.00 48 1008.8
20260503231516 62 285 0.0 0.0 0.00 0.00 0.00 47 1008.8
20260503230015 62 288 0.0 0.0 0.00 0.00 0.00 45 1008.9
20260503224513 62 236 0.0 0.0 0.00 0.00 0.00 46 1009.0
20260503223012 62 297 0.0 0.0 0.00 0.00 0.00 44 1009.1
20260503221512 62 271 0.0 0.0 0.00 0.00 0.00 44 1009.2
20260503220011 63 252 0.0 0.0 0.00 0.00 0.00 43 1009.3
20260503214511 63 277 0.0 0.0 0.00 0.00 0.00 44 1009.2
20260503213010 63 262 0.0 0.0 0.00 0.00 0.00 44 1009.3
20260503211512 63 267 0.0 0.0 0.00 0.00 0.00 43 1009.3
20260503210010 64 298 0.0 0.0 0.00 0.00 0.00 43 1009.4
20260503204508 64 261 0.0 0.0 0.00 0.00 0.00 41 1009.4
20260503203018 64 304 0.0 0.0 0.00 0.00 0.00 42 1009.4
20260503201507 64 277 0.0 0.0 0.00 0.00 0.00 41 1009.6
20260503200005 65 290 0.0 0.0 0.00 0.00 0.00 43 1010.0
20260503194502 63 244 0.0 0.0 0.00 0.00 0.00 44 1010.1
20260503193059 63 271 0.0 0.0 0.00 0.00 0.00 43 1010.2
20260503191604 63 286 0.0 0.0 0.00 0.00 0.00 43 1010.6
20260503184553 61 288 0.0 0.0 0.00 0.00 0.00 43 1011.1
20260503183051 62 258 0.0 0.0 0.00 0.00 0.00 43 1011.3
20260503181600 61 293 0.0 0.0 0.00 0.00 0.00 44 1011.5
20260503180049 61 242 0.0 0.0 0.00 0.00 0.00 43 1011.7
20260503174547 61 240 0.0 0.0 0.00 0.00 0.00 41 1012.0